Weather History for KBVY - May, 2013

Change the Weather History Date:

Monday, May 13, 2013

  Actual Average Record
Temperature  
Mean Temperature 48 °F -  
Max Temperature 57 °F 62 °F 87 °F (1985)
Min Temperature 39 °F 42 °F 30 °F (2005)
Degree Days  
Heating Degree Days 17    
Moisture  
Dew Point 28 °F    
Average Humidity 48    
Maximum Humidity 68    
Minimum Humidity 31    
Precipitation  
Precipitation 0.00 in - - ()
Sea Level Pressure  
Sea Level Pressure 29.92 in    
Wind  
Wind Speed 9 mph (West)    
Max Wind Speed 17 mph    
Max Gust Speed 23 mph    
Visibility 10 miles    
Events      
Averages and records for this station are not official NWS values.
T = Trace of Precipitation, MM = Missing Value Source: NWS Daily Summary

Daily Weather History Graph

Daily Weather History Graph

Search for Another Location

Airport or City:

Trip Planner

Search our weather history database for the weather conditions in past years. The results will help you decide how hot, cold, wet, or windy it might be!

Date:

Astronomy

May. 13, 2013 Rise Set
Actual Time 5:23 AM EDT 7:57 PM EDT
Civil Twilight 4:51 AM EDT 8:29 PM EDT
Nautical Twilight 4:11 AM EDT 9:09 PM EDT
Astronomical Twilight 3:26 AM EDT 9:55 PM EDT
Moon 8:06 AM EDT (5/13) 11:04 PM EDT (5/13)
Length of Visible Light 15h 38m
Length of Day
14h 33m
Waxing Crescent, 12% of the Moon is Illuminated
May 13
Waxing Crescent
May 18
First Quarter
May 25
Full
May 31
Last Quarter
Jun 8
New

Hourly Weather History & Observations

Time (EDT) Temp. Windchill Dew Point Humidity Pressure Visibility Wind Dir Wind Speed Gust Speed Precip Events Conditions
12:53 AM 48.0 °F - 28.0 °F 46% 29.81 in 10.0 mi WNW 8.1 mph - N/A   Clear
1:53 AM 44.1 °F 40.1 °F 28.9 °F 55% 29.82 in 10.0 mi WSW 6.9 mph - N/A   Clear
2:53 AM 44.1 °F 39.5 °F 30.0 °F 58% 29.83 in 10.0 mi West 8.1 mph - N/A   Clear
3:53 AM 41.0 °F 38.0 °F 28.9 °F 62% 29.84 in 10.0 mi WSW 4.6 mph - N/A   Clear
4:53 AM 39.9 °F 35.8 °F 30.0 °F 68% 29.86 in 10.0 mi WSW 5.8 mph - N/A   Clear
5:53 AM 41.0 °F 39.0 °F 30.0 °F 65% 29.88 in 10.0 mi SW 3.5 mph - N/A   Clear
6:53 AM 43.0 °F 39.5 °F 33.1 °F 68% 29.90 in 10.0 mi SW 5.8 mph - N/A   Clear
7:53 AM 46.9 °F - 30.0 °F 52% 29.91 in 10.0 mi West 10.4 mph 17.3 mph N/A   Clear
8:53 AM 48.9 °F - 30.0 °F 48% 29.92 in 10.0 mi WSW 12.7 mph 23.0 mph N/A   Scattered Clouds
9:53 AM 48.9 °F - 28.9 °F 46% 29.93 in 10.0 mi WSW 15.0 mph 21.9 mph N/A   Scattered Clouds
10:53 AM 51.1 °F - 30.9 °F 46% 29.94 in 10.0 mi WSW 17.3 mph 21.9 mph N/A   Mostly Cloudy
11:53 AM 54.0 °F - 30.9 °F 41% 29.94 in 10.0 mi WNW 10.4 mph 17.3 mph N/A   Partly Cloudy
12:53 PM 53.1 °F - 27.0 °F 37% 29.94 in 10.0 mi WNW 12.7 mph 21.9 mph N/A   Partly Cloudy
1:53 PM 55.9 °F - 28.9 °F 36% 29.93 in 10.0 mi West 10.4 mph 21.9 mph N/A   Scattered Clouds
2:53 PM 57.0 °F - 28.9 °F 34% 29.93 in 10.0 mi SW 13.8 mph 19.6 mph N/A   Mostly Cloudy
4:53 PM 55.9 °F - 28.0 °F 34% 29.91 in 10.0 mi WNW 9.2 mph 17.3 mph N/A   Scattered Clouds
5:53 PM 55.0 °F - 25.0 °F 31% 29.93 in 10.0 mi West 10.4 mph - N/A   Partly Cloudy
6:53 PM 52.0 °F - 25.0 °F 35% 29.93 in 10.0 mi NW 13.8 mph - N/A   Clear
7:53 PM 48.2 °F - 24.8 °F 40% 29.98 in 10.0 mi NW 8.1 mph 18.4 mph N/A   Clear
8:53 PM 46.9 °F - 25.0 °F 42% 29.99 in 10.0 mi WNW 6.9 mph - N/A   Clear
9:53 PM 45.0 °F 42.6 °F 26.1 °F 48% 30.01 in 10.0 mi WNW 4.6 mph - N/A   Mostly Cloudy
10:53 PM 45.0 °F 41.2 °F 27.0 °F 49% 30.00 in 10.0 mi WNW 6.9 mph - N/A   Overcast
11:53 PM 45.0 °F 41.8 °F 28.9 °F 53% 30.00 in 10.0 mi NW 5.8 mph - N/A   Overcast